Brinson, GA

8:09 PM EDT on August 26, 2016 (GMT -0400)
Decatur County Industrial

Weather History for KBGE - January, 2013

Change the Weather History Date:

Thursday, January 31, 2013

  Actual Average (KMAI) Record (KMAI)
Temperature  
Mean Temperature 49 °F 52 °F  
Max Temperature 59 °F 63 °F 80 °F (2002)
Min Temperature 39 °F 41 °F 26 °F (2014)
Degree Days  
Heating Degree Days 16    
Month to date heating degree days  
Since 1 July heating degree days  
Cooling Degree Days 0    
Month to date cooling degree days  
Year to date cooling degree days  
Moisture  
Dew Point 32 °F    
Average Humidity 58    
Maximum Humidity 81    
Minimum Humidity 29    
Precipitation  
Precipitation 0.00 in 0.21 in 0.98 in (1999)
Month to date precipitation 5.04  
Year to date precipitation 5.04  
Sea Level Pressure  
Sea Level Pressure 30.17 in    
Wind  
Wind Speed 12 mph (WNW)    
Max Wind Speed 25 mph    
Max Gust Speed 32 mph    
Visibility 10 miles    
Events      
T = Trace of Precipitation, MM = Missing Value Source: NWS Daily Summary

Daily Weather History Graph

Daily Weather History Graph

Search for Another Location

Airport or City:

Trip Planner

Search our weather history database for the weather conditions in past years. The results will help you decide how hot, cold, wet, or windy it might be!

Date:

Astronomy

Jan. 31, 2013 Rise Set
Actual Time 7:30 AM EST 6:13 PM EST
Civil Twilight 7:05 AM EST 6:38 PM EST
Nautical Twilight 6:36 AM EST 7:07 PM EST
Astronomical Twilight 6:08 AM EST 7:36 PM EST
Moon 10:50 PM EST (1/31) 9:52 AM EST (1/31)
Length of Visible Light 11h 33m
Length of Day
10h 42m
Waning Gibbous, 80% of the Moon is Illuminated
Jan 31
Waning Gibbous
Feb 3
Last Quarter
Feb 10
New
Feb 17
First Quarter
Feb 25
Full

Hourly Weather History & Observations

Time (EST) Temp. Windchill Dew Point Humidity Pressure Visibility Wind Dir Wind Speed Gust Speed Precip Events Conditions
12:15 AM 53.6 °F - 44.6 °F 72% 29.96 in 10.0 mi NW 18.4 mph 28.8 mph N/A   Overcast
12:35 AM 53.6 °F - 42.8 °F 67% 29.98 in 10.0 mi WNW 19.6 mph 29.9 mph N/A   Overcast
12:55 AM 51.8 °F - 41.0 °F 67% 29.99 in 10.0 mi NW 19.6 mph 28.8 mph N/A   Mostly Cloudy
1:15 AM 51.8 °F - 41.0 °F 67% 30.00 in 10.0 mi NW 17.3 mph 24.2 mph N/A   Scattered Clouds
1:35 AM 51.8 °F - 42.8 °F 71% 30.01 in 10.0 mi WNW 13.8 mph 19.6 mph N/A   Mostly Cloudy
1:55 AM 50.0 °F - 37.4 °F 62% 30.03 in 10.0 mi West 15.0 mph 21.9 mph N/A   Mostly Cloudy
2:15 AM 50.0 °F - 37.4 °F 62% 30.04 in 10.0 mi WNW 15.0 mph 20.7 mph N/A   Scattered Clouds
2:35 AM 48.2 °F - 37.4 °F 66% 30.05 in 10.0 mi NW 25.3 mph 32.2 mph N/A   Scattered Clouds
2:55 AM 46.4 °F 38.7 °F 32.0 °F 57% 30.06 in 10.0 mi WNW 20.7 mph 29.9 mph N/A   Clear
3:15 AM 44.6 °F 37.8 °F 30.2 °F 57% 30.07 in 10.0 mi NW 15.0 mph 26.5 mph N/A   Clear
3:35 AM 44.6 °F 38.4 °F 32.0 °F 61% 30.07 in 10.0 mi WNW 12.7 mph - N/A   Clear
3:55 AM 44.6 °F 38.1 °F 32.0 °F 61% 30.08 in 10.0 mi WNW 13.8 mph - N/A   Clear
4:15 AM 42.8 °F 37.0 °F 32.0 °F 66% 30.08 in 10.0 mi WNW 10.4 mph 17.3 mph N/A   Clear
4:35 AM 42.8 °F 36.6 °F 32.0 °F 66% 30.09 in 10.0 mi NW 11.5 mph - N/A   Clear
4:55 AM 42.8 °F 37.0 °F 32.0 °F 66% 30.09 in 10.0 mi WNW 10.4 mph - N/A   Clear
5:15 AM 42.8 °F 37.5 °F 32.0 °F 66% 30.10 in 10.0 mi WNW 9.2 mph - N/A   Clear
5:35 AM 41.0 °F 35.2 °F 32.0 °F 70% 30.11 in 10.0 mi WNW 9.2 mph - N/A   Clear
5:55 AM 41.0 °F 34.3 °F 32.0 °F 70% 30.11 in 10.0 mi WNW 11.5 mph 18.4 mph N/A   Clear
6:15 AM 41.0 °F 35.2 °F 32.0 °F 70% 30.10 in 10.0 mi WNW 9.2 mph - N/A   Clear
6:35 AM 41.0 °F 35.2 °F 32.0 °F 70% 30.12 in 10.0 mi WNW 9.2 mph - N/A   Clear
6:55 AM 41.0 °F 35.2 °F 32.0 °F 70% 30.13 in 10.0 mi WNW 9.2 mph - N/A   Clear
7:15 AM 41.0 °F 35.2 °F 32.0 °F 70% 30.13 in 10.0 mi WNW 9.2 mph - N/A   Clear
7:55 AM 41.0 °F 35.8 °F 32.0 °F 70% 30.16 in 10.0 mi West 8.1 mph - N/A   Clear
8:15 AM 41.0 °F 36.4 °F 32.0 °F 70% 30.16 in 10.0 mi WNW 6.9 mph - N/A   Clear
8:35 AM 41.0 °F 35.8 °F 32.0 °F 70% 30.18 in 10.0 mi West 8.1 mph - N/A   Clear
9:15 AM 42.8 °F 37.0 °F 32.0 °F 66% 30.19 in 10.0 mi WNW 10.4 mph - N/A   Clear
9:35 AM 44.6 °F 38.8 °F 32.0 °F 61% 30.20 in 10.0 mi WNW 11.5 mph 16.1 mph N/A   Clear
9:55 AM 44.6 °F 38.1 °F 32.0 °F 61% 30.21 in 10.0 mi WNW 13.8 mph - N/A   Clear
10:15 AM 46.4 °F 41.1 °F 32.0 °F 57% 30.22 in 10.0 mi WNW 11.5 mph - N/A   Clear
10:35 AM 46.4 °F 41.1 °F 30.2 °F 53% 30.23 in 10.0 mi NW 11.5 mph - N/A   Clear
10:55 AM 50.0 °F - 32.0 °F 50% 30.23 in 10.0 mi WNW 12.7 mph 18.4 mph N/A   Clear
11:15 AM 50.0 °F - 30.2 °F 47% 30.23 in 10.0 mi NW 10.4 mph - N/A   Clear
11:35 AM 51.8 °F - 32.0 °F 47% 30.23 in 10.0 mi West 11.5 mph 17.3 mph N/A   Clear
11:55 AM 51.8 °F - 32.0 °F 47% 30.23 in 10.0 mi NW 11.5 mph - N/A   Clear
12:15 PM 51.8 °F - 32.0 °F 47% 30.23 in 10.0 mi WNW 13.8 mph 18.4 mph N/A   Clear
12:35 PM 51.8 °F - 30.2 °F 44% 30.23 in 10.0 mi WNW 11.5 mph 16.1 mph N/A   Clear
12:55 PM 53.6 °F - 30.2 °F 41% 30.23 in 10.0 mi West 13.8 mph 19.6 mph N/A   Clear
1:15 PM 53.6 °F - 28.4 °F 38% 30.22 in 10.0 mi WNW 9.2 mph 19.6 mph N/A   Clear
1:35 PM 55.4 °F - 28.4 °F 36% 30.21 in 10.0 mi WNW 11.5 mph - N/A   Clear
1:55 PM 57.2 °F - 28.4 °F 33% 30.20 in 10.0 mi NW 11.5 mph 20.7 mph N/A   Clear
2:15 PM 57.2 °F - 28.4 °F 33% 30.20 in 10.0 mi WNW 13.8 mph 19.6 mph N/A   Clear
2:35 PM 57.2 °F - 26.6 °F 31% 30.20 in 10.0 mi WNW 10.4 mph 16.1 mph N/A   Clear
2:55 PM 57.2 °F - 26.6 °F 31% 30.20 in 10.0 mi NW 12.7 mph 18.4 mph N/A   Clear
3:15 PM 57.2 °F - 26.6 °F 31% 30.19 in 10.0 mi WNW 12.7 mph 17.3 mph N/A   Clear
3:35 PM 57.2 °F - 26.6 °F 31% 30.19 in 10.0 mi WNW 11.5 mph 18.4 mph N/A   Clear
3:55 PM 59.0 °F - 26.6 °F 29% 30.18 in 10.0 mi NNW 9.2 mph - N/A   Clear
4:15 PM 57.2 °F - 26.6 °F 31% 30.18 in 10.0 mi NW 13.8 mph - N/A   Clear
4:35 PM 57.2 °F - 26.6 °F 31% 30.19 in 10.0 mi NW 9.2 mph - N/A   Clear
4:55 PM 57.2 °F - 26.6 °F 31% 30.19 in 10.0 mi NW 8.1 mph - N/A   Clear
5:15 PM 57.2 °F - 26.6 °F 31% 30.19 in 10.0 mi WNW 10.4 mph - N/A   Clear
5:35 PM 57.2 °F - 26.6 °F 31% 30.20 in 10.0 mi NW 6.9 mph - N/A   Clear
5:55 PM 53.6 °F - 28.4 °F 38% 30.20 in 10.0 mi WNW 4.6 mph - N/A   Clear
6:15 PM 51.8 °F - 30.2 °F 44% 30.20 in 10.0 mi Calm Calm - N/A   Clear
6:35 PM 51.8 °F - 33.8 °F 50% 30.21 in 10.0 mi Calm Calm - N/A   Clear
6:55 PM 48.2 °F - 33.8 °F 58% 30.22 in 10.0 mi West 4.6 mph - N/A   Clear
7:15 PM 44.6 °F - 33.8 °F 66% 30.23 in 10.0 mi Calm Calm - N/A   Clear
7:35 PM 44.6 °F 43.1 °F 35.6 °F 71% 30.23 in 10.0 mi West 3.5 mph - N/A   Clear
7:55 PM 42.8 °F 40.1 °F 35.6 °F 76% 30.25 in 10.0 mi WSW 4.6 mph - N/A   Clear
8:15 PM 42.8 °F 41.1 °F 35.6 °F 76% 30.25 in 10.0 mi West 3.5 mph - N/A   Clear
8:35 PM 44.6 °F - 33.8 °F 66% 30.25 in 10.0 mi Calm Calm - N/A   Clear
8:55 PM 42.8 °F - 35.6 °F 76% 30.25 in 10.0 mi Calm Calm - N/A   Clear
9:15 PM 41.0 °F 39.0 °F 35.6 °F 81% 30.27 in 10.0 mi SW 3.5 mph - N/A   Clear
9:35 PM 41.0 °F 38.0 °F 35.6 °F 81% 30.27 in 10.0 mi WSW 4.6 mph - N/A   Clear
9:55 PM 42.8 °F - 33.8 °F 70% 30.28 in 10.0 mi Calm Calm - N/A   Clear
10:15 PM 42.8 °F 41.1 °F 35.6 °F 76% 30.28 in 10.0 mi WNW 3.5 mph - N/A   Clear
10:35 PM 42.8 °F - 35.6 °F 76% 30.28 in 10.0 mi Calm Calm - N/A   Clear
10:55 PM 41.0 °F - 35.6 °F 81% 30.28 in 10.0 mi Calm Calm - N/A   Clear
11:15 PM 39.2 °F - 33.8 °F 81% 30.28 in 10.0 mi Calm Calm - N/A   Clear
11:35 PM 39.2 °F - 33.8 °F 81% 30.28 in 10.0 mi Calm Calm - N/A   Clear
11:55 PM 39.2 °F - 33.8 °F 81% 30.28 in 10.0 mi Calm Calm - N/A   Clear